User: anonymous   Login
Location: Poughquag
(41.6090°N, 73.6820°W)
Time: 16:55:48
(UTC-04:00)
Language:

Explorer 11/Cluster Stage 4 - Orbit

View from above orbital plane
View from above orbital plane
View from above satellite
View from above satellite

Ground track
Ground track

The orbit data is extracted from the following two-line orbital elements,

1   107U 61013A   20268.56283243  .00000608  00000-0  59849-4 0  9993
2   107  28.7922 341.6985 0546566 285.5612  68.5293 14.09012568979764
Epoch (UTC): 24 September 2020 13:30:28
Eccentricity: 0.0546566
inclination: 28.7922°
perigee height: 467 km
apogee height: 1258 km
right ascension of ascending node: 341.6985°
argument of perigee: 285.5612°
revolutions per day: 14.09012568
mean anomaly at epoch: 68.5293°
orbit number at epoch: 97976

The dashed part of the orbit path shows where the satellite is in the earth's shadow,  

DLR